[Date Prev][Date Next][Thread Prev][Thread Next] - [Date Index][Thread Index][Author Index]
2 Line ISS Keps 11-1
- Subject: [sarex] 2 Line ISS Keps 11-1
- From: "Dave Larsen PhD" <doc@xxxxxxxxxxx>
- Date: Mon, 1 Nov 2004 04:30:47 -0800
ISS
1 25544U 98067A 04306.49273328 .00035788 00000-0 29357-3 0 453
2 25544 51.6371 345.1512 0008570 303.6406 210.6460 15.70072455339884
----
Via the sarex mailing list at AMSAT.ORG courtesy of AMSAT-NA.
To unsubscribe, send "unsubscribe sarex" to Majordomo@amsat.org
- Next by Date:
Re:
- Next by thread:
Re:
- Index(es):
AMSAT Home